DLH7TV EDDF-EDDL

Flight info

Callsign DLH7TV
Flight time 0h 35m
Altitude 20000
Route MARUN3W/25C MARUN Y152 ARPEG Z850 ADEMI T854 DOMUX DOMUX1A
Aircraft A21N/M-SDE2E3FGHIRWXY/LB1

Departure

Time 2026-05-04 17:24
Airport Frankfurt Main Airport (EDDF)

Arrival

Time 2026-05-04 17:59
Airport Düsseldorf Airport (EDDL)
Time Latitude Longitude Altitude Speed Heading
2026-05-04 17:04 50.04672 8.56143 367 ft 0 kts 339°
2026-05-04 17:14 50.04641 8.56173 361 ft 3 kts 274°
2026-05-04 17:14 50.04642 8.56188 361 ft 0 kts 248°
2026-05-04 17:16 50.04592 8.56030 362 ft 13 kts 255°
2026-05-04 17:16 50.04365 8.55919 359 ft 14 kts 160°
2026-05-04 17:17 50.04268 8.55954 356 ft 15 kts 191°
2026-05-04 17:17 50.04097 8.56151 359 ft 14 kts 69°
2026-05-04 17:18 50.04151 8.56372 349 ft 31 kts 70°
2026-05-04 17:18 50.04293 8.56966 357 ft 28 kts 69°
2026-05-04 17:19 50.04430 8.57545 354 ft 29 kts 70°
2026-05-04 17:19 50.04507 8.57834 352 ft 5 kts 77°
2026-05-04 17:20 50.04556 8.58079 350 ft 8 kts 69°
2026-05-04 17:20 50.04651 8.58482 333 ft 8 kts 75°
2026-05-04 17:20 50.04653 8.58491 333 ft 5 kts 75°
2026-05-04 17:21 50.04596 8.58587 327 ft 0 kts 159°
2026-05-04 17:21 50.04574 8.58600 327 ft 14 kts 162°
2026-05-04 17:22 50.04485 8.58583 330 ft 9 kts 233°
2026-05-04 17:22 50.04470 8.58515 329 ft 6 kts 248°
2026-05-04 17:23 50.04388 8.58134 334 ft 67 kts 249°
2026-05-04 17:23 50.04138 8.57123 353 ft 134 kts 249°
2026-05-04 17:23 50.03314 8.53491 697 ft 199 kts 252°
2026-05-04 17:24 50.02828 8.51561 1457 ft 184 kts 248°
2026-05-04 17:24 49.99786 8.47802 2509 ft 231 kts 191°
2026-05-04 17:25 49.98140 8.47423 2943 ft 246 kts 187°
2026-05-04 17:25 49.94760 8.46446 4397 ft 254 kts 195°
2026-05-04 17:26 49.91544 8.44082 5900 ft 264 kts 228°
2026-05-04 17:26 49.91964 8.36189 8246 ft 289 kts 320°
2026-05-04 17:27 49.95664 8.33450 9754 ft 300 kts 335°
2026-05-04 17:27 49.99581 8.31029 11155 ft 306 kts 335°
2026-05-04 17:28 50.03542 8.28486 12645 ft 310 kts 333°
2026-05-04 17:29 50.09905 8.29529 14638 ft 329 kts 24°
2026-05-04 17:29 50.16325 8.33624 16443 ft 338 kts 19°
2026-05-04 17:30 50.23087 8.37311 18216 ft 347 kts 17°
2026-05-04 17:31 50.27824 8.39820 18719 ft 373 kts 17°
2026-05-04 17:31 50.35509 8.43983 19438 ft 406 kts 18°
2026-05-04 17:32 50.40085 8.46485 19967 ft 408 kts 18°
2026-05-04 17:33 50.47350 8.50014 19993 ft 405 kts
2026-05-04 17:33 50.49230 8.50178 19983 ft 402 kts 355°
2026-05-04 17:34 50.57359 8.48056 19991 ft 399 kts 343°
2026-05-04 17:34 50.60048 8.46965 19985 ft 399 kts 342°
2026-05-04 17:35 50.68101 8.43659 19982 ft 399 kts 342°
2026-05-04 17:35 50.73505 8.41539 19989 ft 400 kts 343°
2026-05-04 17:35 50.76177 8.40506 19988 ft 401 kts 343°
2026-05-04 17:36 50.78891 8.39461 19981 ft 401 kts 343°
2026-05-04 17:36 50.81606 8.38416 19987 ft 401 kts 343°
2026-05-04 17:36 50.84317 8.37371 19988 ft 401 kts 343°
2026-05-04 17:36 50.87026 8.36325 19984 ft 401 kts 343°
2026-05-04 17:37 50.89737 8.35276 19989 ft 401 kts 343°
2026-05-04 17:37 50.92446 8.34226 19986 ft 401 kts 343°
2026-05-04 17:37 50.95159 8.33172 19981 ft 401 kts 343°
2026-05-04 17:37 50.97870 8.32119 19991 ft 401 kts 343°
2026-05-04 17:38 51.00577 8.31048 19987 ft 400 kts 341°
2026-05-04 17:38 51.03140 8.29533 19993 ft 397 kts 332°
2026-05-04 17:38 51.05609 8.27587 19994 ft 395 kts 328°
2026-05-04 17:38 51.08000 8.25440 19993 ft 395 kts 326°
2026-05-04 17:39 51.12734 8.20971 19996 ft 395 kts 326°
2026-05-04 17:39 51.15107 8.18755 19992 ft 396 kts 326°
2026-05-04 17:39 51.17494 8.16561 19992 ft 396 kts 327°
2026-05-04 17:40 51.19895 8.14386 19987 ft 395 kts 327°
2026-05-04 17:40 51.22237 8.12284 19993 ft 377 kts 326°
2026-05-04 17:40 51.24224 8.09811 19991 ft 350 kts 306°
2026-05-04 17:40 51.25488 8.06657 19879 ft 329 kts 291°
2026-05-04 17:41 51.26371 8.03354 19685 ft 318 kts 288°
2026-05-04 17:41 51.27177 8.00104 19350 ft 313 kts 287°
2026-05-04 17:41 51.27982 7.96826 18645 ft 322 kts 287°
2026-05-04 17:41 51.28808 7.93432 17726 ft 334 kts 287°
2026-05-04 17:42 51.29647 7.89939 16777 ft 346 kts 287°
2026-05-04 17:42 51.30506 7.86304 16029 ft 351 kts 287°
2026-05-04 17:42 51.31383 7.82653 15479 ft 351 kts 288°
2026-05-04 17:42 51.32262 7.79027 14985 ft 348 kts 288°
2026-05-04 17:43 51.33135 7.75401 14505 ft 346 kts 288°
2026-05-04 17:43 51.33994 7.71814 14018 ft 344 kts 288°
2026-05-04 17:43 51.34818 7.68274 13727 ft 334 kts 284°
2026-05-04 17:43 51.35093 7.64702 13516 ft 316 kts 262°
2026-05-04 17:44 51.34726 7.61306 12947 ft 315 kts 255°
2026-05-04 17:44 51.34192 7.57896 12312 ft 317 kts 253°
2026-05-04 17:44 51.33631 7.54489 11773 ft 316 kts 253°
2026-05-04 17:44 51.33070 7.51112 11451 ft 309 kts 253°
2026-05-04 17:45 51.32536 7.47846 11285 ft 296 kts 253°
2026-05-04 17:45 51.32028 7.44700 11003 ft 289 kts 253°
2026-05-04 17:45 51.31527 7.41605 10631 ft 286 kts 253°
2026-05-04 17:45 51.31070 7.38798 10262 ft 284 kts 253°
2026-05-04 17:46 51.30572 7.35766 10024 ft 281 kts 253°
2026-05-04 17:46 51.30081 7.32777 9996 ft 281 kts 253°
2026-05-04 17:46 51.29591 7.29797 9987 ft 271 kts 253°
2026-05-04 17:46 51.29124 7.26944 9818 ft 261 kts 253°
2026-05-04 17:47 51.28670 7.24160 9449 ft 257 kts 253°
2026-05-04 17:47 51.28235 7.21471 9227 ft 245 kts 253°
2026-05-04 17:47 51.27817 7.18864 8815 ft 241 kts 253°
2026-05-04 17:47 51.27404 7.16280 8389 ft 239 kts 253°
2026-05-04 17:48 51.26997 7.13709 7947 ft 239 kts 253°
2026-05-04 17:48 51.26610 7.11120 7523 ft 238 kts 255°
2026-05-04 17:48 51.26629 7.08486 7163 ft 242 kts 283°
2026-05-04 17:48 51.27521 7.06213 7020 ft 247 kts 315°
2026-05-04 17:49 51.29059 7.04946 7010 ft 256 kts 346°
2026-05-04 17:49 51.30835 7.05041 7006 ft 259 kts 18°
2026-05-04 17:49 51.32361 7.06462 7007 ft 259 kts 44°
2026-05-04 17:49 51.33583 7.08578 7023 ft 260 kts 52°
2026-05-04 17:50 51.34730 7.10816 6971 ft 260 kts 53°
2026-05-04 17:50 51.35873 7.13079 6594 ft 260 kts 53°
2026-05-04 17:50 51.36971 7.15276 6474 ft 245 kts 53°
2026-05-04 17:50 51.38004 7.17353 6300 ft 233 kts 53°
2026-05-04 17:51 51.39000 7.19354 5944 ft 228 kts 53°
2026-05-04 17:51 51.40003 7.21333 5467 ft 230 kts 46°
2026-05-04 17:51 51.41357 7.22655 4960 ft 230 kts 12°
2026-05-04 17:51 51.42915 7.22600 4509 ft 224 kts 337°
2026-05-04 17:52 51.44254 7.21425 4127 ft 217 kts 321°
2026-05-04 17:52 51.45359 7.19822 3996 ft 213 kts 299°
2026-05-04 17:52 51.45797 7.17617 4001 ft 208 kts 271°
2026-05-04 17:52 51.45789 7.15283 4000 ft 210 kts 264°
2026-05-04 17:53 51.45538 7.13024 3993 ft 207 kts 250°
2026-05-04 17:53 51.44933 7.10945 3998 ft 205 kts 234°
2026-05-04 17:53 51.44082 7.09116 3994 ft 205 kts 230°
2026-05-04 17:53 51.43217 7.07324 3980 ft 196 kts 231°
2026-05-04 17:54 51.42410 7.05645 3991 ft 185 kts 230°
2026-05-04 17:54 51.41636 7.04035 3778 ft 181 kts 230°
2026-05-04 17:54 51.40872 7.02437 3419 ft 181 kts 231°
2026-05-04 17:54 51.40109 7.00829 3070 ft 182 kts 231°
2026-05-04 17:55 51.39599 6.99750 2993 ft 185 kts 231°
2026-05-04 17:55 51.38819 6.98094 2997 ft 184 kts 231°
2026-05-04 17:55 51.38071 6.96505 2993 ft 175 kts 231°
2026-05-04 17:55 51.37340 6.94959 2798 ft 174 kts 231°
2026-05-04 17:56 51.36606 6.93413 2564 ft 173 kts 231°
2026-05-04 17:56 51.35884 6.91890 2330 ft 170 kts 231°
2026-05-04 17:56 51.35174 6.90390 2099 ft 169 kts 230°
2026-05-04 17:56 51.34465 6.88895 1853 ft 169 kts 231°
2026-05-04 17:57 51.33749 6.87388 1634 ft 170 kts 230°
2026-05-04 17:57 51.33036 6.85884 1407 ft 169 kts 229°
2026-05-04 17:57 51.32328 6.84392 1131 ft 169 kts 230°
2026-05-04 17:57 51.31615 6.82890 898 ft 170 kts 231°
2026-05-04 17:58 51.30898 6.81380 667 ft 170 kts 231°
2026-05-04 17:58 51.30188 6.79886 448 ft 171 kts 230°
2026-05-04 17:58 51.29470 6.78374 227 ft 171 kts 229°
2026-05-04 17:58 51.28787 6.76938 134 ft 135 kts 233°
2026-05-04 17:59 51.28321 6.75994 122 ft 97 kts 232°
2026-05-04 17:59 51.29156 6.77717 136 ft 0 kts 232°